Location: Gallinara
(44.0333°N, 8.2333°E)
Time: 01:24:48
(UTC+00:00)

PSLV R/B - Pass Details

Date: 25 September 2020
Orbit: 594 x 629 km, 97.9° (Epoch: 31 October)

Event Time Altitude Azimuth Distance (km) Brightness Sun altitude
Rises 03:56:11 0° 7° (N) 2,849 7.2 -15.4°
Reaches altitude 10° 03:58:25 10° 1° (N) 1,940 6.3 -15.0°
Maximum altitude 04:02:27 46° 288° (WNW) 805 3.8 -14.3°
Enters shadow 04:05:41 15° 219° (SW) 1,631 5.3 -13.7°
